Weather in Podolhi

Russia / Belgorod Oblast     50°58′11″N   36°53′52″E
temp.,
°C
wind,
m/s
gust,
m/s
humid.,
%
clouds,
%
prec.,
mm/h
press.,
hPa
HPBL,
m
22 january, sat
sat2200:00−5ssw71494100 0.2 1005556
03:00−6ssw61294100 0.4 1006436
06:00−6ssw6129599 0.1 1006372
09:00−6ssw5119595 0.4 1007370
12:00−5ssw5995100 0.2 1009442
15:00−4ssw4895100 0.5 1010465
18:00−5s389786 0.3 1011220
21:00−6s3797100 0.5 1013150
23 january, sun
sun2300:00−8s369773 0.1 1015106
03:00−10sse2398100 0.1 101657
06:00−9se229998 0.1 101828
09:00−6se1294100 0.1 1021150
12:00−5e3390100 0.1 1023423
15:00−6ne4795100 0.1 1024313
18:00−10nne4109630 0.0 1027150
21:00−9nne6149435 0.0 1027266
24 january, mon
mon2400:00−10nne71693100 0.0 1028309
03:00−9nne71792100 0.0 1027404
06:00−8nne71493100 0.1 1027390
09:00−7ne71494100 0.2 1028476
12:00−5ne7139396 0.1 1028574
15:00−5ene6119199 0.1 1027524
18:00−8ne51194100 0.0 1028285
21:00−10ne41095100 0.0 1028263
25 january, tue
tue2500:00−11ne4997100 0.0 1027201
03:00−10ene4896100 0.1 1026218
06:00−11ene3697100 0.1 1025129
09:00−10e3796100 0.1 1026180
12:00−7e359498 0.1 1025183
15:00−6e359691 0.1 1023202
18:00−6e259795 0.1 1023162
21:00−5ese269792 0.3 1022188
26 january, wed
wed2600:00−5sse3795100 0.1 1022292
03:00−10s379999 0.1 102282
06:00−15sse22100100 0.0 102211
09:00−16se22100100 0.1 102232
12:00−7sse359897 0.1 1022240
15:00−5se249496 0.2 1021339
18:00−5ese2495100 0.1 1021162
21:00−5ese2595100 0.1 1022181